Regional Weather Roundup
Issued by NWS

Home | Current Version | Previous Version | Text Only | Print | Product List | Glossary On
Versions: 1 2 3 4 5 6 7 8 9 10 11 12 13 14 15 16 17 18 19 20 21 22 23 24 25 26 27 28 29 30 31 32 33 34 35 36 37 38 39 40 41 42 43 44 45 46 47 48 49 50
000
ASUS44 KOUN 251710
RWROK

WEATHER ROUNDUP FOR OKLAHOMA
NATIONAL WEATHER SERVICE NORMAN OK
1200 PM CDT WED MAY 25 2016

NOTE: "FAIR" INDICATES FEW OR NO CLOUDS BELOW 12,000 FEET WITH NO
      SIGNIFICANT WEATHER AND/OR OBSTRUCTIONS TO VISIBILITY.

OKZ001>007-009>012-014-015-017-251800-
NORTHWEST OKLAHOMA AND THE PANHANDLE

CITY           SKY/WX    TMP DP  RH WIND       PRES   REMARKS
GAGE           SUNNY     85  49  28 SW8       29.88R
GUYMON         SUNNY     82  40  22 VRB5      29.91S
ENID/WOODRING  PTSUNNY   88  70  55 S18G28    29.84S HX  92
$$

OKZ016-021>023-033>039-044-045-251800-
SOUTHWEST OKLAHOMA

CITY           SKY/WX    TMP DP  RH WIND       PRES   REMARKS
LAWTON/REGL    PTSUNNY   83  73  72 S13       29.90F
LAWTON/FT SILL MOSUNNY   84  76  77 S17       29.89F HX  92
FREDERICK      PTSUNNY   86  73  65 MISG      29.87F HX  93
CLINTON        SUNNY     86  68  54 S18       29.90R
HOBART         SUNNY     84  70  62 S20       29.89F
ALTUS AFB      SUNNY     85  71  61 S13G22    29.88F HX  90
$$

OKZ018>020-024>031-251800-
CENTRAL OKLAHOMA

CITY           SKY/WX    TMP DP  RH WIND       PRES   REMARKS
OKLAHOMA CITY  MOSUNNY   83  72  69 S22       29.89S
OKC/WILEY POST MOSUNNY   85  72  65 S28G35    29.87S HX  91
OKC/TINKER AFB PTSUNNY   82  72  69 S17       29.90R
STILLWATER     MOSUNNY   81  72  74 S20G26    29.88F
GUTHRIE        SUNNY     83  72  69 S18G24    29.88F
$$

OKZ008-013-054>072-251800-
NORTHEAST OKLAHOMA

CITY           SKY/WX    TMP DP  RH WIND       PRES   REMARKS
TULSA          MOSUNNY   78  68  71 SE17G29   29.91F
TULSA/JONES    SUNNY     78  67  68 S16G23    29.92F
PONCA CITY     MOSUNNY   81  70  69 S21G28    29.86F
BARTLESVILLE   SUNNY     77  64  64 S16G31    29.90F
MUSKOGEE       SUNNY     74  67  78 SE18G24   29.98F
$$

OKZ032-040>043-046>053-073>077-251800-
SOUTH CENTRAL/SOUTHEAST OKLAHOMA

CITY           SKY/WX    TMP DP  RH WIND       PRES   REMARKS
ARDMORE/DWNTWN CLOUDY    79  72  78 S9G18     29.95F
MCALESTER      LGT RAIN  78  72  81 S5        30.02R
$$





USA.gov is the U.S. government's official web portal to all federal, state and local government web resources and services.